{"data":{"norad_id":28890,"epoch":"2026-09-19T23:25:31.147680Z","epoch_age_seconds":59559,"freshness":"FRESH","line1":"1 28890U 05043A   26262.97605495  .00000089  00000+0  26578-4 0  9990","line2":"2 28890  98.3049  36.7896 0014429 350.5347   9.5581 14.63578490114515","mean_motion":14.6357849,"eccentricity":0.0014429,"inclination_deg":98.3049,"raan_deg":36.7896,"arg_perigee_deg":350.5347,"mean_anomaly_deg":9.5581,"bstar":2.6578e-5,"rev_number":11451,"period_min":98.38898356589,"perigee_km":671.45636236311,"apogee_km":691.82947525281,"semimajor_km":7059.779918808,"source":"CELESTRAK","updated_at":"2026-09-20T09:00:34.549374Z"}}